Tracking 29042 objects as of 20-Jun-2024
HD Live streaming from Space Station
objects crossing your sky now

OBJECT B

Track OBJECT B now!
10-day predictions


NORAD ID: 47692
Int'l Code: 2021-014B
Perigee: 1,022.1 km
Apogee: 1,181.0 km
Inclination: 63.4 °
Period: 107.1 minutes
Semi major axis: 7472 km
RCS: Unknown
Launch date: February 24, 2021
Source: People's Republic of China (PRC)
Launch site: Jiuquan Satellite Launch Center, China (JSC)

Note: This is a ROCKET BODY
Your satellite tracking list
Your tracking list is empty




NASA's NSSDC Master Catalog

Two Line Element Set (TLE):
1 47692U 21014B   24172.55832867 -.00000011  00000-0  13213-3 0  9992
2 47692  63.4081 272.5143 0106353 358.4592   1.6091 13.43997208162811
Source of the keplerian elements: AFSPC